Tracking 29892 objects as of 21-Nov-2024
HD Live streaming from Space Station
objects crossing your sky now

SL-16 DEB

Track SL-16 DEB now!
10-day predictions


NORAD ID: 22432
Int'l Code: 1992-093DZ
Perigee: 810.8 km
Apogee: 951.6 km
Inclination: 70.8 °
Period: 102.4 minutes
Semi major axis: 7252 km
RCS: 0.0154 m2 (small)
Launch date: December 25, 1992
Source: Commonwealth of Independent States (former USSR) (CIS)
Launch site: TYURATAM MISSILE AND SPACE COMPLEX (TTMTR)

Note: This is SATELLITE DEBRIS
Your satellite tracking list
Your tracking list is empty




NASA's NSSDC Master Catalog

Two Line Element Set (TLE):
1 22432U 92093DZ  24326.10733896  .00001237  00000-0  75442-3 0  9998
2 22432  70.8345   2.3990 0097084 108.9701 283.2160 14.05706029625345
Source of the keplerian elements: AFSPC